Location: Austin
(30.3000°N, 97.7500°W)
Time: 04:06:25
(UTC-06:00)

Centaur D AC-28 - Pass Details

Date: 20 November 2023
Orbit: 682 x 36367 km, 28.0° (Epoch: 04 December)

Event Time Altitude Azimuth Distance (km) Brightness Sun altitude
Rises 20:31:32 0° 272° (W) 9,074 8.4 -38.5°
Reaches altitude 10° 20:40:14 10° 271° (W) 5,404 7.0 -40.3°
Enters shadow 20:48:18 41° 260° (W) 1,669 3.9 -42.1°
